Regional Weather Roundup
Issued by NWS

Home | Current Version | Previous Version | Text Only | Print | Product List | Glossary On
Versions: 1 2 3 4 5 6 7 8 9 10 11 12 13 14 15 16 17 18 19 20 21 22 23 24 25 26 27 28 29 30 31 32 33 34 35 36 37 38 39 40 41 42 43 44 45 46 47 48 49 50
000
ASUS43 KTOP 301008
RWRKS

WEATHER ROUNDUP FOR KANSAS
NATIONAL WEATHER SERVICE GOODLAND KS
500 AM CDT SUN AUG 30 2015

NOTE:  "FAIR" INDICATES FEW OR NO CLOUDS BELOW 12,000 FEET WITH NO
SIGNIFICANT WEATHER AND/OR OBSTRUCTIONS TO VISIBILITY.

KSZ001>006-013>018-027>032-041>047-301100-
NORTHWEST KANSAS

CITY           SKY/WX    TMP DP  RH WIND       PRES   REMARKS
GOODLAND       CLOUDY    65  48  54 SW13      30.08F
HAYS           CLOUDY    52  45  76 S3        30.05S VSB 1/2
HILL CITY      CLEAR     57  55  93 W6        30.06R
RUSSELL        CLEAR     55  54  96 S6        30.03F FOG
$$

KSZ061>065-074>080-084>089-301100-
SOUTHWEST KANSAS

CITY           SKY/WX    TMP DP  RH WIND       PRES   REMARKS
DODGE CITY     FOG       54  53  97 S6        30.08S VSB<1/4
ELKHART          N/A     62  48  60 SW7         N/A
GARDEN CITY    CLEAR     56  53  90 SW3       30.08S
GREAT BEND     CLOUDY    54  50  87 SW5       30.05F VSB 1/4
LIBERAL        CLEAR     57  50  77 W5        30.09S
PRATT          CLEAR     54  54 100 CALM      30.06F FOG
$$

KSZ066>073-081>083-090>101-301100-
SOUTHEAST KANSAS

CITY           SKY/WX    TMP DP  RH WIND       PRES   REMARKS
CHANUTE        MOCLDY    66  65  96 N5        30.00S FOG
COFFEYVILLE    CLEAR     65  65 100 NW3       29.97F
HUTCHINSON     FOG       55  53  93 NW3       30.03F VSB 1/4
MEDICINE LODGE   N/A     57  57 100 NW3       30.03F
NEWTON         CLOUDY    61  57  88 E3        30.05S VSB<1/4
PARSONS        LGT RAIN  65  65 100 N3        29.99S FOG
WICHITA INTL   CLEAR     61  59  93 NW5       30.01F
WICHITA JABRA  CLEAR     59  58  96 N6        30.01F
WICHITA MCCONL CLEAR     61  59  94 NE5       30.01F
$$

KSZ007>012-019>026-033>040-048>060-102>105-301100-
NORTHEAST KANSAS

CITY           SKY/WX    TMP DP  RH WIND       PRES   REMARKS
CONCORDIA      FOG       57  56  96 SE3       30.04S VSB 1/4
EMPORIA        FOG       63  63 100 NE3       30.01F VSB 1/4
LAWRENCE       CLOUDY    64  63  96 CALM      30.01F
MANHATTAN      CLOUDY    62  61  96 CALM      30.03S FOG
MARYSVILLE     FOG      N/A N/A N/A CALM      30.03S VSB 1/4
OLATHE IND     MOCLDY    65  65 100 N5        30.02S
OLATHE EXE     CLOUDY    67  66  97 NE5       30.01S
SALINA         CLOUDY    61  59  93 CALM      30.03F FOG
TOPEKA BILLARD FOG       60  60 100 CALM      30.01F VSB 1/4
TOPEKA FORBES  CLEAR     62  60  93 CALM      30.01F FOG
$$


USA.gov is the U.S. government's official web portal to all federal, state and local government web resources and services.